User: anonymous   Login
Location: Deer Lake
(49.1830°N, 57.4330°W)
Time: 13:36:29
(UTC-03:-30)
Language:

Cosmos 1707 - Orbit

View from above orbital plane
View from above orbital plane
View from above satellite
View from above satellite

Ground track
Ground track

The orbit data is extracted from the following two-line orbital elements,

1 16326U 85113A   14356.19353035  .00008008  00000-0  49301-3 0   889
2 16326 082.5176 018.6031 0011395 188.9370 171.1658 15.09812465580130
Epoch (UTC): 22 December 2014 04:38:41
Eccentricity: 0.0011395
inclination: 82.5176°
perigee height: 529 km
apogee height: 544 km
right ascension of ascending node: 18.6031°
argument of perigee: 188.9370°
revolutions per day: 15.09812465
mean anomaly at epoch: 171.1658°
orbit number at epoch: 58013

The dashed part of the orbit path shows where the satellite is in the earth's shadow,  

DLR